Location: Newark
(25.4800°N, 85.7200°E)
Time: 07:42:52
(UTC+00:00)

Vanguard 1 Rocket - Pass Details

Date: 20 August 2019
Orbit: 651 x 4225 km, 34.3° (Epoch: 20 September)

Event Time Altitude Azimuth Distance (km) Brightness Sun altitude
Rises 03:02:53 0° 291° (WNW) 4,499 10.5 41.8°
Reaches altitude 10° 03:05:18 10° 287° (WNW) 3,833 10.2 42.3°
Maximum altitude 03:15:50 62° 210° (SSW) 2,703 10.3 44.7°
Drops below altitude 10° 03:36:16 10° 135° (SE) 6,919 12.6 49.2°
Sets 03:42:35 0° 132° (SE) 8,252 12.8 50.6°
